Location: Beverley
(50.2667°N, 107.9667°W)
Time: 01:11:15
(UTC+00:00)

Envisat - Pass Details

Date: 28 January 2022
Orbit: 764 x 765 km, 98.2° (Epoch: 22 May)

Event Time Altitude Azimuth Distance (km) Brightness Sun altitude
Rises 13:01:44 0° 9° (N) 3,244 6.3 -17.5°
Reaches altitude 10° 13:04:09 10° 2° (N) 2,313 5.4 -17.1°
Maximum altitude 13:08:54 41° 294° (WNW) 1,100 3.3 -16.3°
Drops below altitude 10° 13:13:38 10° 225° (SW) 2,299 5.1 -15.6°
Sets 13:16:01 0° 218° (SW) 3,222 6.0 -15.2°
